User: anonymous   Login
Location: Vancouver
(49.2500°N, 123.1330°W)
Time: 13:04:29
(UTC-08:00)
Language:

H-2A R/B - Orbit

View from above orbital plane
View from above orbital plane
View from above satellite
View from above satellite

Ground track
Ground track

The orbit data is extracted from the following two-line orbital elements,

1 27601U 02056E   17345.20646594  .00000035  00000-0  27828-4 0  9994
2 27601  98.3560  46.6967 0073129 129.9857 295.2940 14.31813935783142
Epoch (UTC): 11 December 2017 04:57:18
Eccentricity: 0.0073129
inclination: 98.3560°
perigee height: 733 km
apogee height: 838 km
right ascension of ascending node: 46.6967°
argument of perigee: 129.9857°
revolutions per day: 14.31813935
mean anomaly at epoch: 295.2940°
orbit number at epoch: 78314

The dashed part of the orbit path shows where the satellite is in the earth's shadow,  

DLR